Regional Weather Roundup
Issued by NWS State College, PA

Home | Current Version | Previous Version | Graphics & Text | Print | Product List | Glossary On
Versions: 1 2 3 4 5 6 7 8 9 10 11 12 13 14 15 16 17 18 19 20 21 22 23 24 25 26 27 28 29 30 31 32 33 34 35 36 37 38 39 40 41 42 43 44 45 46 47 48 49 50
000
ASUS41 KCTP 271603
RWRCTP

REGIONAL WEATHER ROUNDUP
NATIONAL WEATHER SERVICE STATE COLLEGE PA
1200 PM EDT FRI MAY 27 2016

Note: "fair" indicates few or no clouds below 12,000 feet with no
significant weather and/or obstructions to visibility.

* = STATION THAT DOES NOT REPORT PRECIPITATION /E.G. RAIN...SNOW...ETC/
    THUNDER OR FOG.

PAZ002>004-007>009-013>016-020>023-029>032-271700-
WESTERN PENNSYLVANIA

CITY           SKY/WX    TMP DP  RH WIND       PRES   REMARKS
ERIE           SUNNY     76  64  66 W10       30.02R
MEADVILLE      SUNNY     76  61  59 S8        30.05S
FRANKLIN*      MOSUNNY   79  63  57 SW12      30.09R
NEW CASTLE     PTSUNNY   79  64  60 SW9       30.07R
BEAVER COUNTY  MOSUNNY   79  64  61 SW7G17    30.07R
BUTLER*        MOSUNNY   79  64  61 SW8       30.10S
PITTSBURGH INT MOSUNNY   81  60  48 SW14      30.07S
PITTSBURGH     MOSUNNY   80  62  54 SW10      30.07S
INDIANA*       SUNNY     81  64  57 SW10      30.12S
LATROBE        MOSUNNY   81  64  57 SW12      30.09F
WASHINGTON CO* MOSUNNY   81  64  57 W9        30.09S
$$

PAZ004>006-010>012-017>019-024>028-033>037-041-042-045-046-049>053-271700-
CENTRAL PENNSYLVANIA

CITY           SKY/WX    TMP DP  RH WIND       PRES   REMARKS
BRADFORD       MOSUNNY   78  59  51 S8G17     30.09R
DUBOIS         MOSUNNY   77  61  57 S7        30.09S
CLEARFIELD     SUNNY     79  63  57 S13G18    30.09S
JOHNSTOWN      MOSUNNY   77  57  50 W6        30.13S
ALTOONA        CLOUDY    79  64  60 S8        30.10S
STATE COLLEGE  MOSUNNY   81  66  61 SE5       30.08S
WILLIAMSPORT   MOSUNNY   81  66  60 SE7       30.03F
SELINSGROVE    MOSUNNY   84  66  54 VRB7      30.05F
FT INDIANTOWN  NOT AVBL
CAPITAL CITY   MOSUNNY   84  65  52 MISG      30.06F
HARRISBURG     PTSUNNY   83  65  54 NW3       30.05F
YORK           PTSUNNY   82  66  58 CALM      30.07F
$$

PAZ038>040-043-044-047-048-054-055-060>062-067>071-271700-
EASTERN PENNSYLVANIA

CITY           SKY/WX    TMP DP  RH WIND       PRES   REMARKS
SCRANTON       SUNNY     83  63  50 W9        30.06F
MOUNT POCONO   CLOUDY    73  60  63 SW7       30.11S
ALLENTOWN      MOSUNNY   84  65  52 W7        30.05F
QUAKERTOWN*    MOSUNNY   84  66  54 SW8       30.07F
READING        MOSUNNY   85  67  54 SW8       30.05F
LANCASTER      MOSUNNY   83  67  58 CALM      30.06F
COATESVILLE    SUNNY     82  66  57 VRB6      30.09F
POTTSTOWN      PTSUNNY   83  67  58 VRB5      30.07F
BLUE BELL      SUNNY     82  68  61 SW5       30.06S
DOYLESTOWN     MOSUNNY   79  63  57 VRB7      30.06S
WILLOW GROVE   NOT AVBL
NORTH PHILA    SUNNY     86  68  54 SW9       30.08R
PHILADELPHIA   MOSUNNY   83  66  56 SW8       30.07S
$$



USA.gov is the U.S. government's official web portal to all federal, state and local government web resources and services.